Location: Bear Valley Community Church - Hurst
(32.8460°N, 97.1828°W)
Time: 02:18:16
(UTC+00:00)

PSLV R/B - Pass Details

Date: 08 December 2021
Orbit: 501 x 574 km, 97.8° (Epoch: 28 January)

Event Time Altitude Azimuth Distance (km) Brightness Sun altitude
Rises 23:51:10 0° 148° (SSE) 2,582 7.2 -6.3°
Reaches altitude 10° 23:53:21 10° 139° (SE) 1,706 6.1 -6.7°
Maximum altitude 23:56:40 33° 73° (ENE) 860 4.3 -7.4°
Drops below altitude 10° 00:00:03 10° 8° (N) 1,736 6.1 -8.0°
Sets 00:02:17 0° 359° (N) 2,637 7.1 -8.5°
